Location: Melizzano
(41.1500°N, 14.5000°E)
Time: 07:46:59
(UTC+00:00)

Cosmos 1709 Rocket - Pass Details

Date: 28 September 2021
Orbit: 948 x 1002 km, 82.9° (Epoch: 27 October)

Event Time Altitude Azimuth Distance (km) Brightness Sun altitude
Rises 17:55:22 0° 230° (SW) 3,655 7.7 -13.3°
Reaches altitude 10° 17:58:43 10° 248° (WSW) 2,702 7.3 -13.9°
Maximum altitude 18:02:54 19° 292° (WNW) 2,132 6.9 -14.7°
Drops below altitude 10° 18:07:05 10° 335° (NNW) 2,691 6.8 -15.5°
Sets 18:10:26 0° 353° (N) 3,635 7.2 -16.1°
